Location: Borea
(45.6167°N, 23.0167°E)
Time: 11:21:45
(UTC+00:00)

Cosmos 2278 Rocket - Pass Details

Date: 03 February 2023
Orbit: 841 x 845 km, 71.0° (Epoch: 21 March)

Event Time Altitude Azimuth Distance (km) Brightness Sun altitude
Rises 16:30:02 0° 343° (NNW) 3,416 5.4 -9.7°
Reaches altitude 10° 16:34:54 10° 20° (NNE) 2,476 4.3 -10.5°
Maximum altitude 16:36:16 11° 34° (NE) 2,418 4.2 -10.7°
Drops below altitude 10° 16:37:37 10° 48° (NE) 2,473 4.1 -11.0°
Enters shadow 16:37:39 10° 48° (NE) 2,477 4.1 -11.0°
